Weather History for Portland Troutdale, OR

Change the Weather History Date:

Saturday, January 11, 2014

  Actual Average Record
Temperature  
Mean Temperature 52 °F 39 °F  
Max Temperature 59 °F 45 °F 59 °F (2014)
Min Temperature 45 °F 33 °F 10 °F (1963)
Degree Days  
Heating Degree Days 13 26  
Month to date heating degree days 239 290  
Cooling Degree Days 0 0  
Month to date cooling degree days 0 0  
Growing Degree Days 2 (Base 50)    
Moisture  
Dew Point 41 °F    
Average Humidity 65    
Maximum Humidity 83    
Minimum Humidity 47    
Precipitation  
Precipitation 0.57 in 0.21 in 1.47 in (1972)
Month to date precipitation 1.81 2.44  
Year to date precipitation 1.81 2.44  
Sea Level Pressure  
Sea Level Pressure 29.71 in    
Wind  
Wind Speed 17 mph (SW)    
Max Wind Speed 30 mph    
Max Gust Speed 43 mph    
Visibility 9 miles    
Events Rain    
T = Trace of Precipitation, MM = Missing Value Source: NWS Daily Summary

Daily Weather History Graph

Daily Weather History Graph

Search for Another Location

Airport:

Trip Planner

Search our weather history database for the weather conditions in past years. The results will help you decide how hot, cold, wet, or windy it might be!

Date:

Astronomy

Jan. 11, 2014 Rise Set
Actual Time 7:47 AM PST 4:47 PM PST
Civil Twilight 7:14 AM PST 5:21 PM PST
Nautical Twilight 6:37 AM PST 5:58 PM PST
Astronomical Twilight 6:01 AM PST 6:33 PM PST
Moon 1:37 PM PST (1/11) 3:55 AM PST (1/11)
Length of Visible Light 10h 06m
Length of Day
8h 59m
Waxing Gibbous, 84% of the Moon is Illuminated
Jan 11
Waxing Gibbous
Jan 15
Full
Jan 23
Last Quarter
Jan 30
New
Feb 6
First Quarter

Hourly Weather History & Observations

Time (PST) Temp. Windchill Dew Point Humidity Pressure Visibility Wind Dir Wind Speed Gust Speed Precip Events Conditions
12:53 AM 57.9 °F - 39.0 °F 49% 29.74 in 10.0 mi SW 11.5 mph - N/A   Overcast
1:53 AM 57.9 °F - 39.9 °F 51% 29.70 in 10.0 mi SSW 15.0 mph 20.7 mph N/A   Overcast
2:53 AM 59.0 °F - 39.9 °F 49% 29.65 in 10.0 mi SSW 24.2 mph 40.3 mph N/A   Overcast
3:53 AM 57.0 °F - 44.1 °F 62% 29.62 in 10.0 mi SW 25.3 mph 33.4 mph 0.01 in Rain Light Rain
4:53 AM 54.0 °F - 48.0 °F 80% 29.62 in 9.0 mi SSW 18.4 mph 31.1 mph 0.11 in Rain Light Rain
5:28 AM 50.0 °F - 43.0 °F 77% 29.69 in 5.0 mi West 16.1 mph 42.6 mph 0.12 in Rain Rain
5:53 AM 48.9 °F - 43.0 °F 80% 29.70 in 10.0 mi WSW 19.6 mph 25.3 mph 0.15 in Rain Light Rain
6:53 AM 48.0 °F - 41.0 °F 77% 29.70 in 10.0 mi SSW 11.5 mph - 0.00 in   Scattered Clouds
7:53 AM 48.0 °F - 41.0 °F 77% 29.70 in 10.0 mi SSW 10.4 mph 20.7 mph N/A   Mostly Cloudy
8:53 AM 48.9 °F - 42.1 °F 77% 29.70 in 10.0 mi SSW 16.1 mph 25.3 mph 0.00 in   Mostly Cloudy
9:53 AM 50.0 °F - 42.1 °F 74% 29.72 in 10.0 mi SSW 17.3 mph 24.2 mph 0.00 in   Overcast
10:53 AM 50.0 °F - 41.0 °F 71% 29.69 in 10.0 mi SSW 15.0 mph 25.3 mph 0.00 in Rain Light Rain
11:53 AM 50.0 °F - 42.1 °F 74% 29.65 in 10.0 mi SSW 18.4 mph 27.6 mph 0.05 in Rain Light Rain
12:27 PM 48.0 °F - 43.0 °F 83% 29.66 in 2.0 mi WSW 19.6 mph 26.5 mph 0.09 in Rain Heavy Rain
12:31 PM 48.0 °F - 42.1 °F 80% 29.64 in 3.0 mi WSW 21.9 mph 28.8 mph 0.11 in Rain Heavy Rain
12:43 PM 48.0 °F - 41.0 °F 77% 29.65 in 3.0 mi North - - 0.14 in Rain Light Rain
12:53 PM 48.0 °F - 41.0 °F 77% 29.62 in 10.0 mi SW 18.4 mph 36.8 mph 0.14 in Rain Light Rain
1:53 PM 48.9 °F - 42.1 °F 77% 29.61 in 10.0 mi SW 18.4 mph 26.5 mph 0.00 in Rain Light Rain
2:53 PM 48.9 °F - 43.0 °F 80% 29.60 in 10.0 mi SSW 18.4 mph 27.6 mph 0.03 in Rain Light Rain
3:53 PM 48.9 °F - 41.0 °F 74% 29.62 in 10.0 mi SW 18.4 mph 25.3 mph 0.00 in   Overcast
4:53 PM 48.0 °F - 41.0 °F 77% 29.65 in 10.0 mi SW 24.2 mph 35.7 mph 0.00 in   Overcast
5:53 PM 46.9 °F - 39.0 °F 74% 29.67 in 10.0 mi SW 20.7 mph 34.5 mph 0.01 in   Mostly Cloudy
6:53 PM 46.0 °F 38.5 °F 39.9 °F 79% 29.73 in 10.0 mi SW 19.6 mph 26.5 mph 0.01 in Rain Light Rain
7:53 PM 46.0 °F 39.3 °F 39.0 °F 76% 29.81 in 10.0 mi SW 16.1 mph - 0.00 in   Mostly Cloudy
8:53 PM 45.0 °F 38.5 °F 39.9 °F 82% 29.87 in 10.0 mi SW 13.8 mph - 0.03 in Rain Light Rain
9:53 PM 45.0 °F 38.5 °F 41.0 °F 86% 29.91 in 10.0 mi SW 13.8 mph - 0.01 in   Overcast
10:53 PM 45.0 °F 38.9 °F 39.9 °F 82% 29.97 in 10.0 mi SW 12.7 mph - 0.02 in   Mostly Cloudy
11:53 PM 45.0 °F 37.9 °F 41.0 °F 86% 30.01 in 10.0 mi SW 16.1 mph - 0.00 in Rain Light Rain